GW2624 Weather Reports


time (UTC)temp
C
wind
direction
speed
KPH
gust
KPH
rain 1hr
cm
rain 24hr
cm
rain mn
cm
humidity
%
barometer
mb
20260505185905 15 193 8.0 19.3 0.00 0.00 0.00 39 1001.4
20260505185405 15 194 8.0 19.3 0.00 0.00 0.00 39 1001.0
20260505183405 15 159 11.3 20.9 0.00 0.00 0.00 38 1001.1
20260505181905 15 146 4.8 19.3 0.00 0.00 0.00 38 1001.0
20260505180905 15 232 4.8 16.1 0.00 0.00 0.00 39 1000.9
20260505175905 15 207 4.8 12.9 0.00 0.00 0.00 39 1001.0
20260505175405 15 165 3.2 9.7 0.00 0.00 0.00 40 1001.0
20260505174905 15 222 4.8 9.7 0.00 0.00 0.00 39 1001.3
20260505173405 15 49 3.2 12.9 0.00 0.00 0.00 39 1001.5
20260505170905 13 190 3.2 14.5 0.00 0.00 0.00 42 1001.7
20260505170405 13 124 4.8 11.3 0.00 0.00 0.00 41 1001.8
20260505165405 12 146 1.6 11.3 0.00 0.00 0.00 42 1002.0
20260505164404 12 191 4.8 14.5 0.00 0.00 0.00 43 1002.2
20260505163405 12 225 1.6 9.7 0.00 0.00 0.00 41 1002.3
20260505162905 12 193 3.2 12.9 0.00 0.00 0.00 42 1002.3
20260505162405 12 0 6.4 12.9 0.00 0.00 0.00 43 1002.3
20260505161404 12 0 1.6 4.8 0.00 0.00 0.00 42 1002.5
20260505160405 12 0 0.0 4.8 0.00 0.00 0.00 40 1002.5
20260505152405 12 213 3.2 8.0 0.00 0.00 0.00 46 1002.5
20260505151404 12 178 3.2 8.0 0.00 0.00 0.00 46 1002.5
20260505150905 12 196 3.2 8.0 0.00 0.00 0.00 46 1002.6
20260505150404 12 0 3.2 8.0 0.00 0.00 0.00 46 1002.7
20260505140405 13 212 3.2 11.3 0.00 0.00 0.00 46 1002.8
20260505124904 8 205 0.0 3.2 0.00 0.00 0.00 52 1003.0
20260505124405 8 205 0.0 11.3 0.00 0.00 0.00 51 1003.1
20260505122405 7 153 0.0 3.2 0.00 0.00 0.00 55 1002.8
20260505121905 7 153 1.6 4.8 0.00 0.00 0.00 54 1002.6
20260505120905 7 180 1.6 4.8 0.00 0.00 0.00 55 1002.5
20260505120405 7 200 1.6 4.8 0.00 0.00 0.00 54 1002.3
20260505115905 7 307 1.6 3.2 0.00 0.00 0.00 54 1002.4
20260505115405 7 307 1.6 4.8 0.00 0.00 0.00 54 1002.3
20260505114405 7 201 1.6 3.2 0.00 0.00 0.00 55 1002.5
20260505113404 8 179 1.6 3.2 0.00 0.00 0.00 55 1002.6
20260505112405 8 179 1.6 4.8 0.00 0.00 0.00 55 1002.6
20260505111905 8 179 1.6 4.8 0.00 0.00 0.00 55 1002.6
20260505111405 8 184 3.2 4.8 0.00 0.00 0.00 56 1002.5
20260505110404 8 229 0.0 3.2 0.00 0.00 0.00 55 1002.5
20260505100905 9 287 1.6 3.2 0.00 0.00 0.00 51 1002.1
20260505094405 9 270 0.0 1.6 0.00 0.00 0.00 48 1002.0
20260505093405 10 270 0.0 0.0 0.00 0.00 0.00 47 1001.8
20260505092404 10 270 0.0 1.6 0.00 0.00 0.00 47 1001.8
20260505091905 10 270 0.0 1.6 0.00 0.00 0.00 45 1001.7
20260505084905 11 270 0.0 3.2 0.00 0.00 0.00 41 1002.2
20260505083404 12 270 1.6 3.2 0.00 0.00 0.00 38 1002.4
20260505082904 12 270 1.6 3.2 0.00 0.00 0.00 38 1002.7
20260505081905 12 270 0.0 1.6 0.00 0.00 0.00 36 1003.1
20260505081405 12 270 0.0 1.6 0.00 0.00 0.00 36 1003.0
20260505071905 14 309 3.2 12.9 0.00 0.00 0.00 31 1002.3
20260505071404 14 237 3.2 11.3 0.00 0.00 0.00 31 1002.2
20260505070904 14 266 3.2 8.0 0.00 0.00 0.00 30 1002.4
20260505065405 14 223 3.2 8.0 0.00 0.00 0.00 31 1002.6
20260505064405 14 253 3.2 9.7 0.00 0.00 0.00 32 1002.5
20260505062905 14 201 1.6 8.0 0.00 0.00 0.00 33 1002.6
20260505062404 14 250 1.6 8.0 0.00 0.00 0.00 33 1002.7
20260505061905 14 219 1.6 4.8 0.00 0.00 0.00 33 1002.7
20260505061404 14 240 1.6 12.9 0.00 0.00 0.00 33 1002.6
20260505060405 13 218 4.8 8.0 0.00 0.00 0.00 34 1002.7
20260505055904 13 202 1.6 8.0 0.00 0.00 0.00 36 1002.7
20260505055405 13 190 3.2 8.0 0.00 0.00 0.00 38 1002.8
20260505054405 13 185 0.0 3.2 0.00 0.00 0.00 40 1002.5
20260505053904 13 185 0.0 4.8 0.00 0.00 0.00 38 1002.5
20260505052904 13 173 1.6 4.8 0.00 0.00 0.00 38 1002.4
20260505051904 13 207 1.6 3.2 0.00 0.00 0.00 41 1002.4
20260505050905 13 227 0.0 3.2 0.00 0.00 0.00 39 1002.4
20260505050404 13 227 0.0 3.2 0.00 0.00 0.00 40 1002.5
20260505041404 15 227 0.0 3.2 0.00 0.00 0.00 30 1002.6
20260505035905 16 258 1.6 3.2 0.00 0.00 0.00 29 1002.8
20260505034905 16 231 0.0 4.8 0.00 0.00 0.00 29 1003.0
20260505033906 16 279 1.6 8.0 0.00 0.00 0.00 28 1002.8
20260505033404 16 182 1.6 8.0 0.00 0.00 0.00 28 1002.8
20260505032405 16 172 0.0 8.0 0.00 0.00 0.00 28 1002.7
20260505031904 16 180 0.0 8.0 0.00 0.00 0.00 27 1002.6
20260505030904 16 119 1.6 11.3 0.00 0.00 0.00 26 1002.3
20260505030404 16 119 1.6 11.3 0.00 0.00 0.00 26 1002.4
20260505025905 16 285 3.2 11.3 0.00 0.00 0.00 25 1002.2
20260505025405 16 72 0.0 4.8 0.00 0.00 0.00 26 1002.1
20260505024906 16 64 0.0 4.8 0.00 0.00 0.00 26 1002.1
20260505024405 16 348 1.6 11.3 0.00 0.00 0.00 26 1002.1
20260505022905 16 207 1.6 9.7 0.00 0.00 0.00 24 1001.9
20260505022405 17 295 0.0 9.7 0.00 0.00 0.00 24 1001.9
20260505020904 17 0 1.6 8.0 0.00 0.00 0.00 23 1001.8
20260505020404 17 0 1.6 4.8 0.00 0.00 0.00 22 1001.8
20260505015904 17 0 1.6 4.8 0.00 0.00 0.00 21 1001.9
20260505015405 17 0 1.6 4.8 0.00 0.00 0.00 21 1002.0
20260505014904 17 0 3.2 4.8 0.00 0.00 0.00 21 1001.9
20260505013404 18 0 1.6 8.0 0.00 0.00 0.00 20 1001.5
20260505011905 18 320 4.8 14.5 0.00 0.00 0.00 20 1001.3
20260505011405 18 242 1.6 14.5 0.00 0.00 0.00 20 1001.3
20260505010905 18 195 3.2 9.7 0.00 0.00 0.00 19 1001.3
20260505010404 18 212 3.2 12.9 0.00 0.00 0.00 19 1001.4
20260505005905 18 206 4.8 12.9 0.00 0.00 0.00 19 1001.3
20260505005405 18 242 3.2 19.3 0.00 0.00 0.00 19 1001.4
20260505004904 18 180 4.8 19.3 0.00 0.00 0.00 19 1001.4
20260505004404 19 259 3.2 19.3 0.00 0.00 0.00 19 1001.5
20260505002905 19 221 4.8 14.5 0.00 0.00 0.00 18 1001.5
20260505002404 19 253 3.2 11.3 0.00 0.00 0.00 19 1001.5
20260505001905 19 259 4.8 11.3 0.00 0.00 0.00 19 1001.4
20260505001404 19 305 4.8 9.7 0.00 0.00 0.00 20 1001.4
20260505000904 19 219 0.0 11.3 0.00 0.00 0.00 20 1001.5
20260505000405 19 160 3.2 16.1 0.00 0.00 0.00 20 1001.6
20260504235905 19 223 3.2 16.1 0.00 0.00 0.00 20 1001.6
20260504235405 19 276 4.8 11.3 0.00 0.00 0.00 20 1001.6
20260504234405 19 319 1.6 9.7 0.00 0.00 0.00 21 1001.8
20260504233904 20 203 3.2 9.7 0.00 0.00 0.00 20 1001.8
20260504233405 20 278 1.6 9.7 0.00 0.00 0.00 20 1001.8
20260504232904 20 0 1.6 9.7 0.00 0.00 0.00 20 1001.7
20260504230905 20 252 9.7 24.1 0.00 0.00 0.00 20 1001.8
20260504225904 20 265 3.2 9.7 0.00 0.00 0.00 20 1002.1
20260504225405 19 152 3.2 9.7 0.00 0.00 0.00 19 1002.1
20260504224405 19 247 1.6 11.3 0.00 0.00 0.00 19 1002.4
20260504223405 20 189 6.4 12.9 0.00 0.00 0.00 19 1002.2
20260504222905 19 273 3.2 9.7 0.00 0.00 0.00 20 1002.3
20260504220405 20 238 6.4 19.3 0.00 0.00 0.00 17 1002.7
20260504211904 20 265 6.4 16.1 0.00 0.00 0.00 15 1003.1
20260504210405 20 100 3.2 24.1 0.00 0.00 0.00 17 1003.2
20260504205405 20 243 8.0 24.1 0.00 0.00 0.00 16 1003.5
20260504204904 20 198 8.0 19.3 0.00 0.00 0.00 16 1003.5
20260504203904 20 196 8.0 20.9 0.00 0.00 0.00 18 1003.7
20260504200904 20 257 3.2 19.3 0.00 0.00 0.00 21 1003.7
20260504194904 20 207 8.0 19.3 0.00 0.00 0.00 21 1003.8
20260504194404 20 192 9.7 16.1 0.00 0.00 0.00 21 1003.9
20260504193405 20 231 3.2 16.1 0.00 0.00 0.00 21 1004.0
20260504192904 20 243 4.8 16.1 0.00 0.00 0.00 22 1004.0
20260504192405 20 213 9.7 16.1 0.00 0.00 0.00 23 1003.9
20260504190904 19 184 8.0 19.3 0.00 0.00 0.00 24 1004.1